Погода в Новлянском

Россия / Ивановская область     57°27′07″N   41°43′30″E
темп.,
°C
ветер,
м/с
пор.,
м/с
влажн.,
%
обл.,
%
осадки,
мм/ч
давл.,
гПа
погр.,
м
22 апреля, чт
чт2200:00+3ююз3892100 0.0 1011420
03:00+3ю3995100 0.0 1012375
06:00+3ююз3897100 0.0 1014541
09:00+4ю4995100 0.1 1015527
12:00+5ююз5992100 0.1 1016660
15:00+8ююз4979100 0.1 10161073
18:00+9ююз497455 0.1 1016716
21:00+7ю3118518 0.1 1017289
23 апреля, пт
пт2300:00+6ю311905 0.0 1017261
03:00+4ююв310936 0.0 1017219
06:00+5ююв411915 0.0 1017299
09:00+11ю5107242 0.0 1017593
12:00+14ю586052 0.0 10171128
15:00+15ю595451 1.5 10151849
18:00+13ююв510635 0.7 1015724
21:00+9ююв4137821 0.8 1015390
24 апреля, сб
сб2400:00+8юв4138238 0.1 1014366
03:00+7юв4138646 0.2 1012337
06:00+7юв5148280 0.0 1010436
09:00+11юв6127499 0.0 1008975
12:00+13юв71267100 1.4 10061722
15:00+12юв6117699 4.1 10051447
18:00+5з2396100 15.5 1005194
21:00+2з4798100 27.3 1004312
25 апреля, вс
вс2500:00+1з41099100 7.1 1002334
03:00+1з51398100 12.2 1001565
06:00+1з71698100 5.9 10011051
09:00+1з71494100 8.8 10031036
12:00+3з61389100 0.9 10041395
15:00+4з61386100 1.6 10061305
18:00+4з41080100 0.2 1006838
21:00+2зюз4118599 0.2 1007449
26 апреля, пн
пн2600:00+1зюз5128796 0.1 1008467
03:000зюз4129092 0.1 1009400
06:000зюз4119073 0.0 1010444
09:00+4зюз59767 0.0 1010986
12:00+7зюз585999 0.1 10102055
15:00+8зюз585846 0.4 10102018
18:00+6зюз386639 0.6 1009333
21:00+1зюз22875 0.8 101016